Shawano, WI

6:47 AM CDT on April 27, 2017 (GMT -0500)
Shawano

Weather History for KEZS - March, 2013

Change the Weather History Date:

Friday, March 15, 2013

  Actual Average (KCLI) Record (KCLI)
Temperature  
Mean Temperature 29 °F -  
Max Temperature 35 °F 39 °F 65 °F (1990)
Min Temperature 23 °F 20 °F -5 °F (1956)
Degree Days  
Heating Degree Days 36    
Moisture  
Dew Point 26 °F    
Average Humidity 78    
Maximum Humidity 100    
Minimum Humidity 60    
Precipitation  
Precipitation 0.00 in - - ()
Sea Level Pressure  
Sea Level Pressure 29.92 in    
Wind  
Wind Speed 7 mph (ESE)    
Max Wind Speed 17 mph    
Max Gust Speed 20 mph    
Visibility 8 miles    
Events Snow    
Averages and records for this station are not official NWS values.
T = Trace of Precipitation, MM = Missing Value Source: NWS Daily Summary

Daily Weather History Graph

Daily Weather History Graph

Search for Another Location

Airport or City:

Trip Planner

Search our weather history database for the weather conditions in past years. The results will help you decide how hot, cold, wet, or windy it might be!

Date:

Astronomy

Mar. 15, 2013 Rise Set
Actual Time 7:06 AM CDT 7:00 PM CDT
Civil Twilight 6:37 AM CDT 7:29 PM CDT
Nautical Twilight 6:03 AM CDT 8:03 PM CDT
Astronomical Twilight 5:28 AM CDT 8:38 PM CDT
Moon 8:45 AM CDT (3/15) 11:26 PM CDT (3/15)
Length of Visible Light 12h 52m
Length of Day
11h 54m
Waxing Crescent, 15% of the Moon is Illuminated
Mar 15
Waxing Crescent
Mar 19
First Quarter
Mar 27
Full
Apr 2
Last Quarter
Apr 10
New

Hourly Weather History & Observations

Time (CDT) Temp. Windchill Dew Point Humidity Pressure Visibility Wind Dir Wind Speed Gust Speed Precip Events Conditions
12:15 AM 32.0 °F 25.6 °F 26.6 °F 80% 29.97 in 10.0 mi SW 6.9 mph - N/A   Clear
12:35 AM 32.0 °F 25.6 °F 26.6 °F 80% 29.98 in 10.0 mi WSW 6.9 mph - N/A   Clear
12:55 AM 32.0 °F 26.4 °F 26.6 °F 80% 29.98 in 10.0 mi WSW 5.8 mph - N/A   Clear
1:15 AM 32.0 °F 27.5 °F 26.6 °F 80% 29.98 in 10.0 mi WSW 4.6 mph - N/A   Clear
1:35 AM 32.0 °F 28.7 °F 26.6 °F 80% 29.96 in 10.0 mi SW 3.5 mph - N/A   Scattered Clouds
2:15 AM 32.0 °F 28.7 °F 26.6 °F 80% 29.96 in 10.0 mi SW 3.5 mph - N/A   Scattered Clouds
2:35 AM 32.0 °F 27.5 °F 26.6 °F 80% 29.96 in 10.0 mi SW 4.6 mph - N/A   Mostly Cloudy
2:55 AM 32.0 °F 26.4 °F 26.6 °F 80% 29.95 in 10.0 mi SW 5.8 mph - N/A   Mostly Cloudy
3:15 AM 32.0 °F 26.4 °F 26.6 °F 80% 29.94 in 10.0 mi SW 5.8 mph - N/A   Overcast
3:35 AM 32.0 °F 27.5 °F 26.6 °F 80% 29.94 in 10.0 mi SW 4.6 mph - N/A   Overcast
3:55 AM 32.0 °F 27.5 °F 26.6 °F 80% 29.92 in 10.0 mi SW 4.6 mph - N/A   Overcast
4:15 AM 32.0 °F 28.7 °F 26.6 °F 80% 29.91 in 10.0 mi SW 3.5 mph - N/A   Overcast
4:35 AM 32.0 °F 25.6 °F 26.6 °F 80% 29.92 in 10.0 mi WSW 6.9 mph - N/A   Overcast
4:55 AM 32.0 °F 25.6 °F 26.6 °F 80% 29.91 in 10.0 mi WSW 6.9 mph - N/A   Overcast
5:15 AM 32.0 °F 25.6 °F 26.6 °F 80% 29.90 in 10.0 mi WSW 6.9 mph - N/A   Overcast
5:35 AM 32.0 °F 26.4 °F 26.6 °F 80% 29.91 in 10.0 mi WSW 5.8 mph - N/A   Overcast
5:55 AM 32.0 °F 26.4 °F 26.6 °F 80% 29.91 in 10.0 mi West 5.8 mph - N/A   Overcast
6:15 AM 32.0 °F 27.5 °F 26.6 °F 80% 29.91 in 10.0 mi WSW 4.6 mph - N/A   Overcast
6:35 AM 32.0 °F - 26.6 °F 80% 29.91 in 10.0 mi Calm Calm - N/A   Overcast
6:55 AM 32.0 °F 28.7 °F 26.6 °F 80% 29.91 in 10.0 mi West 3.5 mph - N/A   Overcast
7:15 AM 32.0 °F 28.7 °F 26.6 °F 80% 29.91 in 10.0 mi WNW 3.5 mph - N/A   Overcast
7:35 AM 32.0 °F 26.4 °F 26.6 °F 80% 29.92 in 10.0 mi WNW 5.8 mph - N/A   Overcast
7:55 AM 32.0 °F 27.5 °F 26.6 °F 80% 29.93 in 10.0 mi WNW 4.6 mph - N/A   Overcast
8:15 AM 32.0 °F 26.4 °F 28.4 °F 87% 29.93 in 7.0 mi WNW 5.8 mph - N/A   Overcast
8:35 AM 32.0 °F 27.5 °F 28.4 °F 87% 29.93 in 1.8 mi WNW 4.6 mph - N/A Snow Light Snow
8:55 AM 32.0 °F 28.7 °F 30.2 °F 93% 29.93 in 1.2 mi WNW 3.5 mph - N/A Snow Light Snow
9:15 AM 32.0 °F 27.5 °F 30.2 °F 93% 29.92 in 1.2 mi NNW 4.6 mph - N/A Snow Light Snow
9:35 AM 32.0 °F 28.7 °F 30.2 °F 93% 29.92 in 2.0 mi NNW 3.5 mph - N/A Snow Light Snow
9:55 AM 32.0 °F - 32.0 °F 100% 29.92 in 1.8 mi Calm Calm - N/A   Overcast
10:55 AM 33.8 °F 29.6 °F 32.0 °F 93% 29.92 in 4.0 mi NE 4.6 mph - N/A   Overcast
11:15 AM 33.8 °F 27.7 °F 30.2 °F 87% 29.92 in 5.0 mi ENE 6.9 mph - N/A   Haze
11:35 AM 33.8 °F 27.0 °F 30.2 °F 87% 29.92 in 3.0 mi ENE 8.1 mph - N/A   Haze
11:55 AM 33.8 °F 27.0 °F 30.2 °F 87% 29.92 in 5.0 mi ENE 8.1 mph - N/A   Haze
12:15 PM 33.8 °F 26.4 °F 30.2 °F 87% 29.93 in 10.0 mi ENE 9.2 mph - N/A   Overcast
12:35 PM 33.8 °F 27.7 °F 30.2 °F 87% 29.93 in 10.0 mi ENE 6.9 mph - N/A   Overcast
12:55 PM 33.8 °F 27.7 °F 30.2 °F 87% 29.93 in 10.0 mi East 6.9 mph - N/A   Overcast
1:15 PM 33.8 °F 29.6 °F 28.4 °F 81% 29.93 in 10.0 mi East 4.6 mph - N/A   Overcast
1:35 PM 33.8 °F 28.6 °F 28.4 °F 81% 29.93 in 10.0 mi East 5.8 mph - N/A   Overcast
1:55 PM 33.8 °F 28.6 °F 28.4 °F 81% 29.92 in 10.0 mi East 5.8 mph - N/A   Overcast
2:15 PM 35.6 °F 31.7 °F 28.4 °F 75% 29.92 in 10.0 mi ESE 4.6 mph - N/A   Overcast
2:35 PM 35.6 °F 32.8 °F 28.4 °F 75% 29.92 in 10.0 mi ESE 3.5 mph - N/A   Overcast
2:55 PM 35.6 °F 31.7 °F 28.4 °F 75% 29.91 in 10.0 mi SE 4.6 mph - N/A   Overcast
3:15 PM 35.6 °F 31.7 °F 26.6 °F 70% 29.90 in 10.0 mi ESE 4.6 mph - N/A   Overcast
3:35 PM 35.6 °F 31.7 °F 26.6 °F 70% 29.89 in 10.0 mi East 4.6 mph - N/A   Overcast
3:55 PM 35.6 °F 29.9 °F 26.6 °F 70% 29.89 in 10.0 mi ESE 6.9 mph - N/A   Overcast
4:15 PM 35.6 °F 30.7 °F 26.6 °F 70% 29.88 in 10.0 mi ESE 5.8 mph - N/A   Overcast
4:35 PM 35.6 °F 29.9 °F 26.6 °F 70% 29.89 in 10.0 mi SE 6.9 mph - N/A   Mostly Cloudy
4:55 PM 35.6 °F 29.9 °F 26.6 °F 70% 29.89 in 10.0 mi SE 6.9 mph - N/A   Overcast
5:15 PM 33.8 °F 26.4 °F 26.6 °F 75% 29.89 in 10.0 mi SE 9.2 mph - N/A   Overcast
5:35 PM 33.8 °F 26.4 °F 26.6 °F 75% 29.88 in 10.0 mi SE 9.2 mph - N/A   Mostly Cloudy
5:55 PM 32.0 °F 24.8 °F 24.8 °F 75% 29.89 in 10.0 mi ESE 8.1 mph - N/A   Mostly Cloudy
6:15 PM 32.0 °F 24.2 °F 24.8 °F 75% 29.89 in 10.0 mi East 9.2 mph - N/A   Overcast
6:35 PM 32.0 °F 24.2 °F 23.0 °F 69% 29.89 in 10.0 mi East 9.2 mph - N/A   Overcast
6:55 PM 32.0 °F 24.2 °F 23.0 °F 69% 29.89 in 10.0 mi East 9.2 mph - N/A   Overcast
7:15 PM 32.0 °F 23.0 °F 21.2 °F 64% 29.89 in 10.0 mi East 11.5 mph - N/A Snow Light Snow
7:35 PM 30.2 °F 19.8 °F 21.2 °F 69% 29.90 in 10.0 mi East 13.8 mph - N/A   Overcast
7:55 PM 30.2 °F 19.8 °F 19.4 °F 64% 29.91 in 10.0 mi East 13.8 mph - N/A   Overcast
8:15 PM 30.2 °F 19.8 °F 17.6 °F 60% 29.91 in 10.0 mi East 13.8 mph 17.3 mph N/A   Overcast
8:35 PM 28.4 °F 16.6 °F 17.6 °F 64% 29.91 in 10.0 mi East 16.1 mph 19.6 mph N/A   Mostly Cloudy
8:55 PM 28.4 °F 18.0 °F 17.6 °F 64% 29.92 in 10.0 mi East 12.7 mph - N/A   Scattered Clouds
9:15 PM 28.4 °F 19.7 °F 17.6 °F 64% 29.93 in 10.0 mi East 9.2 mph - N/A   Overcast
9:35 PM 28.4 °F 18.5 °F 17.6 °F 64% 29.93 in 10.0 mi East 11.5 mph - N/A   Overcast
9:55 PM 28.4 °F 16.2 °F 17.6 °F 64% 29.94 in 10.0 mi ENE 17.3 mph - N/A   Overcast
10:15 PM 26.6 °F 14.7 °F 19.4 °F 74% 29.93 in 1.2 mi ENE 15.0 mph - N/A Snow Light Snow
10:35 PM 24.8 °F 13.4 °F 19.4 °F 80% 29.93 in 1.8 mi ENE 12.7 mph - N/A Snow Light Snow
10:55 PM 23.0 °F 10.1 °F 19.4 °F 86% 29.94 in 5.0 mi East 15.0 mph - N/A Snow Light Snow
11:15 PM 23.0 °F 9.6 °F 19.4 °F 86% 29.94 in 3.0 mi ENE 16.1 mph - N/A Snow Light Snow
11:35 PM 23.0 °F 10.6 °F 19.4 °F 86% 29.94 in 3.0 mi East 13.8 mph - N/A Snow Light Snow